Rockford, IL

8:26 AM CDT on August 22, 2017 (GMT -0500)
Greater Rockford

Weather History for KRFD - March, 2012

Change the Weather History Date:

Sunday, March 11, 2012

  Actual Average Record
Temperature  
Mean Temperature 50 °F 35 °F  
Max Temperature 66 °F 45 °F 71 °F (1990)
Min Temperature 33 °F 26 °F -4 °F (1943)
Degree Days  
Heating Degree Days 15 30  
Month to date heating degree days 286 352  
Since 1 July heating degree days 4660 5354  
Cooling Degree Days 0 0  
Month to date cooling degree days 0 0  
Year to date cooling degree days 0 0  
Moisture  
Dew Point 32 °F    
Average Humidity 52    
Maximum Humidity 77    
Minimum Humidity 26    
Precipitation  
Precipitation 0.04 in 0.07 in 1.37 in (1962)
Month to date precipitation 0.66 0.72  
Year to date precipitation 3.20 3.50  
Snow  
Snow 0.00 in 0.20 in 5.00 in (1950)
Month to date snowfall 3.0 2.3  
Since 1 July snowfall 24.3 33.3  
Snow Depth 0.00 in    
Sea Level Pressure  
Sea Level Pressure 30.15 in    
Wind  
Wind Speed 11 mph (SSE)    
Max Wind Speed 25 mph    
Max Gust Speed 33 mph    
Visibility 10 miles    
Events Rain    
T = Trace of Precipitation, MM = Missing Value Source: NWS Daily Summary

Daily Weather History Graph

Daily Weather History Graph

Search for Another Location

Airport or City:

Trip Planner

Search our weather history database for the weather conditions in past years. The results will help you decide how hot, cold, wet, or windy it might be!

Date:

Astronomy

Mar. 11, 2012 Rise Set
Actual Time 7:14 AM CDT 6:58 PM CDT
Civil Twilight 6:46 AM CDT 7:26 PM CDT
Nautical Twilight 6:13 AM CDT 7:59 PM CDT
Astronomical Twilight 5:41 AM CDT 8:32 PM CDT
Moon 11:29 PM CDT (3/11) 8:44 AM CDT (3/11)
Length of Visible Light 12h 40m
Length of Day
11h 44m
Waning Gibbous, 85% of the Moon is Illuminated
Mar 11
Waning Gibbous
Mar 14
Last Quarter
Mar 22
New
Mar 30
First Quarter
Apr 6
Full

Hourly Weather History & Observations

Time (CDT) Temp. Windchill Dew Point Humidity Pressure Visibility Wind Dir Wind Speed Gust Speed Precip Events Conditions
12:54 AM 37.9 °F 32.1 °F 28.0 °F 68% 30.23 in 10.0 mi South 8.1 mph - N/A   Clear
1:54 AM 36.0 °F 30.3 °F 27.0 °F 70% 30.23 in 10.0 mi South 6.9 mph - N/A   Clear
3:54 AM 35.1 °F 29.3 °F 27.0 °F 72% 30.22 in 10.0 mi South 6.9 mph - N/A   Clear
4:54 AM 35.1 °F 29.3 °F 27.0 °F 72% 30.22 in 10.0 mi SSE 6.9 mph - N/A   Clear
5:54 AM 35.1 °F 28.6 °F 26.1 °F 70% 30.23 in 10.0 mi SSE 8.1 mph - N/A   Partly Cloudy
6:54 AM 35.1 °F 31.0 °F 26.1 °F 70% 30.24 in 10.0 mi SE 4.6 mph - N/A   Partly Cloudy
7:54 AM 35.1 °F 30.1 °F 26.1 °F 70% 30.25 in 10.0 mi SSE 5.8 mph - N/A   Mostly Cloudy
8:54 AM 41.0 °F 38.0 °F 30.0 °F 65% 30.27 in 10.0 mi South 4.6 mph - N/A   Scattered Clouds
9:54 AM 48.9 °F - 30.0 °F 48% 30.27 in 10.0 mi SSW 11.5 mph - N/A   Scattered Clouds
10:54 AM 54.0 °F - 28.9 °F 38% 30.27 in 10.0 mi SSW 8.1 mph - N/A   Scattered Clouds
11:54 AM 59.0 °F - 28.0 °F 31% 30.24 in 10.0 mi South 10.4 mph - N/A   Mostly Cloudy
12:54 PM 62.1 °F - 28.9 °F 29% 30.22 in 10.0 mi South 8.1 mph - N/A   Mostly Cloudy
1:54 PM 62.1 °F - 28.9 °F 29% 30.20 in 10.0 mi South 13.8 mph - N/A   Overcast
2:54 PM 64.0 °F - 28.0 °F 26% 30.16 in 10.0 mi South 15.0 mph - N/A   Overcast
3:54 PM 64.0 °F - 28.0 °F 26% 30.12 in 10.0 mi South 15.0 mph - N/A   Overcast
4:54 PM 64.9 °F - 28.0 °F 25% 30.10 in 10.0 mi South 13.8 mph - N/A   Overcast
5:54 PM 62.1 °F - 30.0 °F 30% 30.09 in 10.0 mi South 10.4 mph - N/A   Overcast
6:54 PM 59.0 °F - 35.1 °F 41% 30.08 in 10.0 mi SSE 9.2 mph - N/A   Overcast
7:54 PM 59.0 °F - 37.9 °F 46% 30.07 in 10.0 mi SSE 9.2 mph - N/A   Overcast
8:54 PM 57.9 °F - 39.0 °F 49% 30.06 in 10.0 mi SSE 15.0 mph - N/A   Overcast
9:54 PM 57.9 °F - 39.9 °F 51% 30.03 in 10.0 mi SSE 16.1 mph - N/A   Overcast
10:54 PM 55.0 °F - 43.0 °F 64% 30.02 in 9.0 mi SSE 18.4 mph 23.0 mph 0.00 in Rain Light Rain
11:54 PM 52.0 °F - 45.0 °F 77% 30.00 in 9.0 mi SSE 20.7 mph 27.6 mph 0.01 in Rain Light Rain
12:15 AM 51.8 °F - 46.4 °F 82% 29.98 in 5.0 mi SSE 18.4 mph 25.3 mph 0.00 in Rain Light Rain
12:54 AM 50.0 °F - 46.0 °F 86% 29.96 in 9.0 mi SSE 16.1 mph - 0.02 in Rain Light Rain